SL-18 R/B, 22562

Orbit data source: Space-Track

SL-18 R/B, 22562 is space debris in LEO originally from a launch on Thu, 25 Mar 1993 UTC launched from the Plesetsk Missile And Space Complex (PKMTR). Debris objects in space refer to the collection of defunct objects orbiting the Earth. Examples of debris include non-operational satellites, rocket bodies, and fragments generated from explosions, collisions, or faulty payload assembly.

Loading next visibility...
Identifier
22562, 1993-014B
Orbit
LEO
Country
Flag of CISCIS
Related business
Manufacturer
Kompleks-MIT
Mission
Spacecraft
Bus & Motor
START, Unknown motor
Mass
300 kg wet, 300 kg dry
Launch date (UTC)
1993-03-25 (33 years ago)
Launch vehicle
Unknown
Launch site
Plesetsk Missile And Space Complex (PKMTR)
Object type
Payload
Rocket body
Debris
Shape & HBR
Cyl, 1.3 m
Radar Cross Section
3.519 m², Large (>1 m²)

Expand to show TLE details & history
Last TLE update: 12 hours ago

TLE from 12 hours ago
0 SL-18 R/B
1 22562U 93014B   25294.45185470  .00000570  00000-0  19453-3 0  9997
2 22562  75.7624 195.9899 0161591  69.3676 292.4728 14.30475112697699
Epoch: 2025-10-21T10:50Z
TLE epoch observation values (Epoch: 2025-10-21T10:50:40.246Z)
Latitude
0.00002°
Longitude
3.1826°
Altitude
750.17 km
Speed
7.502 km/s
True Right ascension
13h 03m 57s
True Declination
0° 00' 00"
Sunlit
Object was in daylight at epoch
Visualization orbit readout
Latitude
Unknown
Longitude
Unknown
Altitude
Unknown
Speed
Unknown
Apparent Right ascension
Unknown
Apparent Declination
Unknown
Sunlit
N/A
Visualization observer readout
Local Sidereal Time
17:56:17
Azimuth
Unknown
Elevation
Unknown
Doppler factor
Unknown
Orbital elements
Apogee altitude
903.425 km
Perigee altitude
671.84 km
Semi-major axis
7,165.77 km
Eccentricity
0.01616
Inclination
75.7624°
RAAN
195.9899°
Arg. of periapsis
69.3676°
True anomaly
290.74867°
Mean anomaly
292.4728°
Eccentric anomaly
291.61204°
Mean motion
3.57807 °/min
Orbital period
100.61 mins
BSTAR
0.00019453
Loading maneuver chart data...
Computing Atmospheric mass density...
Loading historical data...
Loading historical data...
Loading historical data...
Loading historical data...
Loading historical data...
Loading historical data...
Loading historical data...

Documentation

Showing up to 5 results
|